Regional Weather Roundup
Issued by NWS

Home | Current Version | Previous Version | Text Only | Print | Product List | Glossary On
Versions: 1 2 3 4 5 6 7 8 9 10 11 12 13 14 15 16 17 18 19 20 21 22 23 24 25 26 27 28 29 30 31 32 33 34 35 36 37 38 39 40 41 42 43 44 45 46 47 48 49 50
000
ASUS43 KMKX 020311
RWRWI

WISCONSIN REGIONAL WEATHER ROUNDUP
NATIONAL WEATHER SERVICE MILWAUKEE/SULLIVAN WI
1000 PM CDT FRI AUG 01 2014

NOTE: "FAIR" INDICATES FEW OR NO CLOUDS BELOW 12,000 FEET WITH NO
SIGNIFICANT WEATHER AND/OR OBSTRUCTIONS TO VISIBILITY.

WIZ001-002-006>008-014>016-023>028-020400-
NORTHWEST WISCONSIN

CITY           SKY/WX    TMP DP  RH WIND       PRES   REMARKS
SUPERIOR ARPT  CLEAR     54  52  93 CALM      30.09R
ASHLAND        PTCLDY    58  57  97 W3        30.10R
HAYWARD        CLEAR     64  61  90 CALM      30.10R
SIREN          CLEAR     65  62  91 CALM      30.09R
RICE LAKE      CLEAR     66  60  81 CALM      30.11R
LADYSMITH      CLEAR     65  59  81 E5        30.12S
EAU CLAIRE     CLEAR     67  64  90 CALM      30.09R
MENOMONIE      PTCLDY    68  64  85 CALM      30.09R
NEW RICHMOND   MOCLDY    69  60  71 S8        30.10R
OSCEOLA        PTCLDY    72  63  74 CALM      30.11R
$$

WIZ003>005-009-010-017-018-020400-
NORTH CENTRAL WISCONSIN

CITY           SKY/WX    TMP DP  RH WIND       PRES   REMARKS
WOODRUFF       CLEAR     57  43  59 CALM      30.13S
RHINELANDER    CLEAR     59  54  83 CALM      30.13R
EAGLE RIVER    CLEAR     57  56  99 CALM      30.13R
LAND O LAKES   CLEAR     55  55  99 CALM      30.14S
PHILLIPS       CLEAR     59  57  94 CALM      30.12R
TOMAHAWK       CLEAR     56  54  93 CALM      30.13R
MEDFORD        CLEAR     58  57  94 CALM      30.12S
MERRILL        CLEAR     63  60  90 CALM      30.11S
$$

WIZ029-030-035-036-043>047-020400-
CENTRAL WISCONSIN

CITY           SKY/WX    TMP DP  RH WIND       PRES   REMARKS
WAUSAU         CLEAR     63  60  90 SW3       30.10R
MOSINEE        CLEAR     63  61  94 CALM      30.12R
MARSHFIELD     CLEAR     61  59  93 W3        30.11R
STEVENS POINT  CLEAR     58  56  92 CALM      30.12R
WAUPACA        CLEAR     62  58  84 CALM      30.11R
WAUTOMA        CLEAR     58  57  96 CALM      30.10R
WISC RAPIDS    CLEAR     61  56  83 W7        30.11S
CAMP DOUGLAS   MOCLDY    60  60 100 NW2       30.09S
$$

WIZ011>013-019>022-031-037>040-048>050-020400-
NORTHEAST WISCONSIN

CITY           SKY/WX    TMP DP  RH WIND       PRES   REMARKS
ANTIGO         CLEAR     60  58  93 CALM      30.13R
STURGEON BAY   PTCLDY    63  57  82 E3        30.10R
GREEN BAY      PTCLDY    66  63  90 SW5       30.09R
MANITOWOC      MOCLDY    63  61  93 CALM      30.09R
APPLETON       MOCLDY    64  63  94 VRB3      30.10R
CLINTONVILLE   PTCLDY    61  57  88 CALM      30.09S
OSHKOSH        MOCLDY    64  61  90 CALM      30.09R
$$

WIZ032>034-041-042-053>061-020400-
SOUTHWEST WISCONSIN

CITY           SKY/WX    TMP DP  RH WIND       PRES   REMARKS
LA CROSSE      PTCLDY    72  60  66 SE9       30.09R
SPARTA         MOCLDY    68  55  61 CALM      30.11F
VIROQUA        FAIR      67  53  60 SE6       30.12S
BOSCOBEL       PTCLDY    67  53  61 CALM      30.11R
PRAIRIE DU CHI CLEAR     70  54  56 E7        30.09S
PLATTEVILLE    FAIR      66  55  68 E7        30.13R
$$

WIZ056-057-062-063-064-067-068-020400-
SOUTH CENTRAL WISCONSIN

CITY           SKY/WX    TMP DP  RH WIND       PRES   REMARKS
BARABOO/DELLS  CLOUDY    62  55  77 CALM      30.09R
LONE ROCK      CLOUDY    67  59  75 CALM      30.10S
WATERTOWN      CLOUDY    62  59  91 CALM      30.11R
MADISON        MOCLDY    62  58  86 N5        30.12R
MIDDLETON      FAIR      63  57  80 S5        30.10S
MONROE         MOCLDY    64  55  72 S10       30.13R
JANESVILLE     CLOUDY    66  55  68 SE8       30.11S
$$

WIZ051-052-058>065-066-070>072-020400-
SOUTHEAST WISCONSIN

CITY           SKY/WX    TMP DP  RH WIND       PRES   REMARKS
MILWAUKEE      CLOUDY    65  56  72 W8        30.10S
WAUKESHA       CLOUDY    59  55  88 CALM      30.13S
MILWAUKEE/TIMM CLOUDY    61  55  82 SW6       30.11F
RACINE         CLOUDY    65  55  70 W8        30.11F
BURLINGTON     CLOUDY    60  57  89 S5        30.11F
KENOSHA        LGT RAIN  62  58  86 W15       30.11F
FOND DU LAC    MOCLDY    63  57  81 S7        30.09S
SHEBOYGAN      MOCLDY    64  58  80 W6        30.09S
WEST BEND      MOCLDY    63  54  72 W3        30.09F
JUNEAU         CLOUDY    63  53  71 CALM      30.11S
$$

LSZ147-162-020400-
LAKE SUPERIOR

STATION/POSITION TIME  TEMP    WIND        PRES    WAVE
                       AIR SEA DIR/SP/G            HT/PER
                 (UTC) (F)     (DEG/KT/KT) (MB)    (FT/S)
W MID LAKE BUOY  0250   50 47   70/  6/  6 1019.4S   0
PORT WING        0200   59      20/  9/ 11 1018.6
SAXON HARBOR     0200             CALM     1018.6S
$$

LMZ867-665-643>646-020400-
LAKE MICHIGAN

STATION/POSITION TIME  TEMP    WIND        PRES    WAVE
                       AIR SEA DIR/SP/G            HT/PER
                 (UTC) (F)     (DEG/KT/KT) (MB)    (FT/S)
N MID LAKE BUOY  0250   63 60  160/  2/  4 1019.0R   0
NORTHPORT PIER   0200   64     170/  2/  4 1019.0R
SISTER BAY       0211   63        CALM       N/A
ALGOMA LAKESHORE 0206             CALM       N/A
KEWAUNEE LAKESHO 0200   60     160/  6/  6 1017.7R
SHEBOYGAN LAKESH 0300   71     270/  9/ 10 1018.4F
PORT WASHINGTON  0200   68     260/  7/ 12 1019.3
ATWATER BUOY     0300   67     230/ 14     1019.6F
MILWAUKEE LAKESH 0200   67     270/ 12/ 17   N/A
S MID LAKE BUOY  0250   67 64  250/  4/  6 1019.1R   0
KENOSHA   LAKESH 0300   69     250/ 12/ 16 1018.3F
$$

TC  - TEMPERATURE IN CELSIUS
VSB - VISIBILITY IN STATUTE MILES
WCI - WIND CHILL INDEX
HX  - HEAT INDEX



USA.gov is the U.S. government's official web portal to all federal, state and local government web resources and services.